Vorticity
7 8 6 12 18 20 15 8 21 16 1 5 -18 16 18 -25 21 5 13 10 7 7 8 7 7 6 6 6 6 5 6 7 7 7 6 6 6 6 6 5 6 5 4
13 0 10 9 9 24 17 10 9 20 15 1 21 7 37 61 25 -18 5 12 10 8 8 8 7 6 6 7 7 6 7 8 6 8 6 6 6 7 6 5 5 4 4
15 7 3 11 8 12 25 13 4 15 17 15 10 13 15 11 38 22 1 11 9 8 8 8 6 7 6 6 6 7 7 7 6 7 7 9 7 8 6 6 4 4 5
13 19 6 14 15 7 27 12 12 15 22 7 8 11 18 -15 24 21 11 -2 11 8 8 9 6 6 6 6 7 6 8 8 7 6 7 9 6 7 5 5 4 6 5
6 15 18 20 14 9 13 22 6 8 27 9 4 7 22 27 42 -22 59 -9 7 9 6 9 7 6 6 7 7 7 6 8 8 9 6 6 5 5 6 5 6 4 5
5 12 20 25 15 17 9 25 7 12 23 7 4 9 20 -1 44 7 41 -1 -0 8 7 6 6 7 7 7 7 8 8 7 8 7 7 6 6 5 6 5 3 6 5
18 13 17 18 20 16 15 26 21 4 23 10 6 7 18 16 23 17 -10 68 -7 4 6 8 7 9 8 7 7 8 7 7 8 8 6 6 6 5 4 -0 8 3 11
10 14 13 18 23 35 23 19 13 18 23 15 7 0 26 23 4 1 -12 64 8 3 5 8 9 9 8 9 9 9 9 10 10 6 10 9 -3 -1 -4 11 15 12 6
7 13 12 14 22 20 6 11 9 14 16 18 8 2 21 -9 25 27 21 31 10 11 11 9 10 9 8 7 10 13 18 15 12 5 5 -2 -8 16 16 16 7 5 4
13 14 10 9 9 6 14 15 12 5 18 19 11 9 6 -1 18 45 25 9 6 6 -1 2 6 -1 -8 -4 -0 3 -5 1 -3 -8 4 5 27 15 10 6 5 4 6
14 16 7 10 5 8 7 20 21 18 23 16 9 15 16 20 12 22 -4 4 15 11 -7 1 -14 -36 -41 -3 2 -17 2 11 13 3 16 24 10 8 5 4 4 7 6
17 19 8 8 13 9 8 12 21 13 11 25 17 32 1 12 13 56 13 -11 -5 -12 4 -6 17 25 35 -7 17 1 40 5 2 56 6 9 7 4 3 6 6 5 5
16 18 14 11 10 13 13 7 7 14 8 9 11 20 5 13 -2 9 16 9 4 8 -1 4 11 -2 2 6 25 27 7 10 36 12 9 6 5 4 5 5 4 3 4
14 17 18 15 12 7 8 11 10 10 9 12 9 12 29 26 -9 -1 27 14 12 11 5 4 12 8 21 -3 16 38 17 9 8 6 5 4 5 7 7 4 2 4 6
-6 7 24 24 18 10 4 9 10 6 20 16 11 9 6 25 8 28 -3 -4 6 17 8 12 15 11 8 32 9 8 8 8 6 6 5 5 7 5 3 3 6 7 11
8 1 36 20 36 19 13 7 3 6 13 16 9 8 11 21 25 12 11 6 10 10 11 -4 9 19 23 7 8 9 7 7 5 5 5 6 5 4 4 5 6 11 15
7 7 -2 37 43 22 15 16 15 11 11 13 10 16 20 -12 -9 9 32 14 17 -6 10 21 19 17 2 6 8 6 5 4 4 5 6 6 6 6 6 7 9 12 11
6 8 7 6 30 16 13 29 14 8 22 11 11 13 19 22 8 27 12 -7 9 17 18 21 7 6 9 10 6 4 4 5 6 7 6 5 6 6 7 12 15 12 12
6 7 9 8 28 25 15 29 27 36 14 14 -4 6 5 -9 39 5 8 15 7 14 12 9 8 9 8 5 5 5 5 6 5 4 5 7 6 8 11 14 12 12 11
7 7 8 12 6 21 11 29 10 -6 10 23 8 6 4 25 15 7 16 5 4 10 1 3 9 7 5 6 5 5 4 3 3 5 6 7 7 12 16 14 10 9 9
6 7 8 10 11 26 17 36 18 25 29 16 22 20 26 9 18 25 2 12 13 5 8 5 5 7 5 5 3 3 3 4 5 6 8 7 12 15 12 9 9 10 10
5 6 8 10 11 10 21 14 3 24 26 22 26 9 22 28 28 30 30 12 7 7 8 9 8 6 4 4 4 3 5 6 6 5 6 12 15 12 10 10 12 11 11
6 7 3 11 12 13 13 9 19 2 13 12 2 1 4 4 7 6 7 8 11 7 6 6 5 5 5 4 5 6 5 5 7 5 11 16 14 11 10 10 11 11 12
10 11 12 4 15 11 13 17 11 4 6 3 2 3 3 8 13 13 8 7 6 6 6 6 5 5 5 6 6 5 7 7 5 12 17 13 11 10 10 10 11 11 11
21 5 7 9 -9 -9 11 13 14 12 14 15 14 14 12 10 8 7 6 7 7 6 6 7 7 7 6 6 5 5 6 6 11 18 15 10 10 10 10 11 10 11 11
14 3 19 0 9 3 35 8 14 13 13 14 12 11 11 10 8 5 5 5 4 8 8 7 6 7 5 5 6 6 6 10 14 15 9 10 9 9 11 10 11 11 11
Height
3039 3035 3032 3030 3029 3028 3030 3033 3035 3039 3043 3049 3052 3056 3044 3054 3058 3061 3078 3084 3087 3092 3096 3100 3102 3106 3110 3112 3115 3118 3121 3123 3125 3127 3129 3130 3131 3132 3132 3131 3131 3130 3129
3034 3032 3028 3025 3023 3022 3022 3025 3028 3029 3035 3040 3044 3044 3050 3050 3048 3054 3064 3076 3081 3087 3093 3096 3098 3101 3105 3109 3112 3114 3117 3120 3122 3124 3125 3126 3128 3128 3128 3128 3127 3126 3125
3027 3025 3023 3019 3017 3016 3015 3018 3021 3022 3028 3033 3036 3038 3040 3045 3049 3055 3056 3067 3076 3081 3087 3090 3093 3096 3101 3105 3108 3110 3112 3115 3117 3119 3122 3122 3123 3124 3124 3124 3123 3122 3121
3022 3018 3016 3013 3011 3010 3009 3011 3013 3016 3019 3026 3029 3034 3037 3040 3042 3048 3047 3059 3071 3075 3082 3087 3088 3092 3095 3101 3105 3106 3108 3110 3112 3114 3116 3118 3119 3119 3120 3121 3119 3118 3116
3017 3013 3009 3005 3004 3003 3003 3005 3007 3010 3013 3018 3023 3028 3031 3036 3037 3040 3047 3051 3063 3070 3076 3082 3082 3086 3090 3096 3100 3104 3104 3106 3108 3110 3111 3113 3114 3115 3116 3116 3115 3113 3110
3012 3007 3003 2998 2997 2997 2998 2998 3002 3006 3008 3012 3017 3021 3027 3028 3033 3035 3038 3047 3054 3063 3071 3077 3076 3081 3087 3092 3094 3099 3102 3103 3104 3106 3108 3110 3111 3112 3112 3111 3111 3108 3106
3008 3004 2999 2994 2992 2992 2992 2993 2997 3001 3004 3008 3012 3017 3019 3022 3026 3031 3037 3043 3048 3057 3066 3071 3073 3081 3086 3090 3093 3095 3099 3101 3102 3105 3105 3106 3107 3109 3108 3106 3106 3104 3102
3005 3001 2996 2992 2988 2986 2987 2990 2993 2996 3000 3004 3009 3014 3015 3018 3021 3027 3032 3037 3044 3054 3058 3066 3075 3083 3086 3088 3091 3093 3096 3097 3098 3101 3103 3104 3104 3104 3102 3100 3101 3099 3097
3002 2999 2995 2992 2989 2987 2987 2989 2991 2993 2996 3000 3006 3010 3012 3013 3016 3020 3026 3036 3045 3050 3056 3064 3073 3080 3082 3084 3087 3090 3092 3094 3097 3099 3099 3100 3098 3096 3096 3099 3097 3095 3093
3000 2996 2994 2992 2991 2989 2989 2990 2990 2991 2994 2997 3002 3006 3009 3010 3013 3018 3028 3036 3044 3048 3054 3062 3069 3076 3078 3081 3085 3084 3087 3090 3092 3093 3092 3091 3090 3092 3093 3093 3091 3088 3085
2997 2994 2992 2991 2991 2990 2989 2989 2988 2989 2991 2995 3000 3003 3006 3005 3009 3018 3022 3032 3039 3046 3053 3059 3066 3068 3070 3075 3077 3077 3080 3083 3083 3084 3085 3086 3088 3088 3088 3087 3085 3083 3080
2995 2991 2990 2989 2989 2989 2990 2989 2989 2990 2992 2995 2996 2997 3002 3007 3010 3015 3021 3031 3040 3045 3052 3055 3060 3063 3066 3070 3070 3073 3076 3077 3078 3080 3081 3083 3084 3083 3082 3079 3077 3075 3072
2992 2989 2988 2988 2987 2987 2988 2989 2990 2992 2993 2995 2998 2999 3002 3007 3011 3016 3022 3029 3035 3043 3047 3053 3056 3058 3061 3065 3065 3068 3070 3073 3075 3077 3078 3078 3078 3076 3074 3073 3071 3066 3064
2992 2988 2986 2985 2985 2985 2987 2988 2989 2991 2994 2996 2998 3000 3003 3008 3008 3017 3023 3028 3034 3040 3044 3049 3051 3054 3057 3060 3062 3064 3067 3069 3071 3072 3073 3073 3073 3072 3070 3065 3063 3060 3056
2993 2988 2983 2981 2980 2982 2984 2986 2988 2989 2991 2994 2998 3001 3004 3007 3012 3014 3020 3027 3030 3037 3041 3045 3047 3050 3053 3055 3057 3061 3064 3066 3067 3068 3070 3070 3069 3066 3062 3058 3057 3054 3050
2994 2988 2982 2978 2975 2977 2980 2983 2985 2988 2990 2992 2995 2998 3000 3004 3010 3014 3019 3025 3029 3035 3038 3042 3046 3047 3049 3055 3060 3063 3063 3064 3065 3066 3066 3064 3064 3061 3058 3053 3050 3048 3043
2995 2990 2983 2978 2974 2974 2976 2979 2981 2984 2987 2990 2992 2996 3000 3003 3008 3015 3019 3024 3029 3032 3036 3040 3043 3045 3049 3055 3058 3061 3061 3061 3061 3062 3062 3060 3059 3056 3052 3048 3044 3042 3039
2996 2992 2986 2981 2975 2974 2974 2973 2973 2979 2985 2989 2991 2994 2996 3001 3009 3013 3018 3022 3026 3031 3036 3039 3042 3046 3051 3054 3057 3059 3057 3059 3059 3059 3058 3056 3055 3051 3045 3042 3038 3035 3029
2996 2993 2989 2985 2979 2976 2975 2975 2976 2978 2983 2989 2992 2996 2997 3003 3007 3012 3017 3022 3027 3031 3035 3039 3045 3046 3050 3053 3055 3056 3056 3056 3055 3055 3054 3052 3049 3045 3038 3035 3031 3028 3023
2998 2995 2991 2988 2984 2980 2978 2978 2979 2980 2984 2987 2992 2997 3000 3003 3006 3011 3016 3022 3026 3030 3035 3039 3044 3046 3049 3051 3054 3053 3052 3053 3053 3053 3050 3047 3042 3038 3033 3028 3026 3022 3019
2999 2998 2995 2991 2988 2985 2981 2981 2982 2983 2984 2988 2991 2995 3000 3004 3009 3013 3017 3021 3025 3029 3034 3039 3041 3044 3047 3048 3051 3052 3051 3050 3050 3048 3044 3039 3034 3031 3026 3022 3020 3018 3016
3000 2999 2997 2994 2992 2989 2988 2987 2987 2988 2990 2993 2996 2999 3003 3006 3010 3015 3018 3022 3026 3030 3035 3038 3041 3044 3045 3047 3049 3048 3046 3045 3044 3038 3034 3032 3029 3025 3022 3018 3018 3014 3013
3000 2999 2998 2997 2995 2994 2994 2993 2993 2995 2996 2998 2999 3002 3006 3009 3013 3016 3020 3023 3027 3030 3034 3037 3039 3041 3043 3044 3044 3043 3042 3040 3037 3033 3029 3027 3024 3021 3018 3016 3015 3011 3007
2999 2998 2997 2997 2997 2996 2996 2996 2996 2998 3000 3002 3004 3006 3008 3011 3014 3016 3020 3024 3028 3031 3034 3036 3039 3041 3041 3041 3040 3039 3037 3034 3032 3028 3025 3023 3021 3018 3015 3012 3008 3004 3000
2995 2996 2997 2997 2997 2997 2998 2998 2998 2999 3000 3002 3004 3006 3009 3012 3015 3018 3022 3025 3028 3031 3033 3035 3036 3037 3037 3036 3035 3034 3033 3031 3027 3023 3019 3016 3013 3011 3009 3006 3003 3000 2997
2993 2994 2994 2995 2995 2995 2996 2998 3000 3001 3002 3004 3006 3009 3011 3014 3017 3020 3022 3025 3027 3029 3031 3033 3034 3034 3034 3034 3032 3030 3027 3022 3018 3015 3013 3012 3010 3008 3005 3002 2999 2996 2992